This demonstration page uses our WeatherBlox Daily Observations layout. Learn more.

Left ArrowRight Arrow

40.92945, -100.16068

Hourly Observations for July 28, 2020

Temp ( °F °C ) Dew Point ( °F °C ) Humidity (%) Winds ( mph kmh ) Pressure ( in mb ) Visibility ( mi km ) Precip ( " mm )
12:15 am 00:15 Clear 69 20.6 64 18 85 85 SE 5 7 30.02 1016 10 16.0934 0 0
12:35 am 00:35 Clear 68 20 64 18 88 88 SSE 5 7 30.01 1016 10 16.0934 0 0
12:55 am 00:55 Clear 68 20 64 18 88 88 SE 6 9 30.01 1016 10 16.0934 0 0
1:15 am 01:15 Clear 67 19.6 64 18 91 91 SSE 6 9 30.01 1016 10 16.0934 0 0
1:35 am 01:35 Clear 66 18.7 64 17.6 93 93 SSE 5 7 30.01 1016 10 16.0934 0 0
1:55 am 01:55 Clear 67 19.2 65 18.1 93 93 SSE 5 7 30 1016 10 16.0934 0 0
2:15 am 02:15 Clear 66 18.7 64 17.8 95 95 S 5 7 29.99 1016 10 16.0934 0 0
2:35 am 02:35 Clear 66 18.8 64 18 95 95 S 5 7 29.99 1016 10 16.0934 0 0
2:55 am 02:55 Clear 66 19 65 18.1 95 95 SSE 3 6 29.99 1016 10 16.0934 0 0
3:15 am 03:15 Clear 66 19 65 18.1 95 95 SE 3 6 29.99 1016 10 16.0934 0 0
3:35 am 03:35 Mostly Cloudy 66 19.1 65 18.3 95 95 SE 3 6 29.98 1015 10 16.0934 0 0
3:55 am 03:55 Mostly Cloudy 67 19.6 65 18.6 94 94 Calm 29.98 1015 10 16.0934 0 0
4:15 am 04:15 Cloudy 67 19.5 65 18.6 95 95 Calm 29.98 1015 10 16.0934 0 0
4:35 am 04:35 Cloudy with Mist and Fog 65 18.5 64 18 97 97 ENE 3 6 29.98 1015 4 6.43736 0 0
4:55 am 04:55 Cloudy 66 19 65 18.3 96 96 Calm 29.98 1015 7 11.26538 0 0
5:15 am 05:15 Cloudy 67 19.5 66 18.8 96 96 S 3 6 29.98 1015 7 11.26538 0 0
5:35 am 05:35 Cloudy 67 19.7 66 19 96 96 S 3 6 29.97 1015 7 11.26538 0 0
5:55 am 05:55 Cloudy 67 19.7 66 19 96 96 S 3 6 29.97 1015 7 11.26538 0 0
6:15 am 06:15 Cloudy 67 19.6 66 19 96 96 S 3 6 29.98 1015 7 11.26538 0 0
6:35 am 06:35 Partly Cloudy with Mist and Fog 67 19.5 66 18.9 96 96 Calm 29.98 1015 5 8.0467 0 0
6:55 am 06:55 Mostly Cloudy with Mist and Fog 67 19.4 66 19 98 98 Calm 29.99 1015 4 6.43736 0 0
7:15 am 07:15 Cloudy with Mist and Fog 68 20.2 67 19.7 97 97 S 5 7 29.97 1015 5 8.0467 0 0
7:35 am 07:35 Cloudy with Mist and Fog 69 20.5 68 19.9 96 96 S 3 6 29.98 1015 5 8.0467 0 0
7:55 am 07:55 Cloudy with Mist and Fog 70 21 69 20.4 96 96 SSW 3 6 29.97 1015 5 8.0467 0 0
8:15 am 08:15 Cloudy 71 21.5 69 20.6 95 95 S 6 9 29.97 1015 7 11.26538 0 0
8:35 am 08:35 Cloudy 71 21.8 69 20.7 94 94 S 5 7 29.97 1015 10 16.0934 0 0
8:55 am 08:55 Cloudy 72 22.1 69 20.6 91 91 S 5 7 29.96 1015 10 16.0934 0 0
9:15 am 09:15 Cloudy 73 22.5 69 20.4 88 88 S 8 13 29.96 1015 10 16.0934 0 0
9:35 am 09:35 Cloudy 73 22.6 69 20.5 88 88 S 7 11 29.96 1015 10 16.0934 0 0
9:55 am 09:55 Cloudy 73 23 68 19.8 82 82 SSW 5 7 29.96 1014 10 16.0934 0 0
10:15 am 10:15 Cloudy 74 23.2 68 20 82 82 SSW 7 11 29.94 1014 10 16.0934 0 0
10:35 am 10:35 Cloudy 75 24 68 19.9 78 78 SSW 8 13 29.95 1014 10 16.0934 0 0
10:55 am 10:55 Cloudy 75 24 68 20 78 78 SSW 8 13 29.94 1014 10 16.0934 0 0
11:15 am 11:15 Cloudy 76 24.7 67 19.4 72 72 S 8 13 29.93 1014 10 16.0934 0 0
11:35 am 11:35 Mostly Cloudy 77 25.1 67 19.2 70 70 S 7 11 29.93 1014 10 16.0934 0 0
11:55 am 11:55 Mostly Cloudy 77 25.1 67 19.3 70 70 S 8 13 29.93 1014 10 16.0934 0 0
12:15 pm 12:15 Mostly Cloudy 79 25.9 67 19.4 67 67 S 8 13 29.92 1013 10 16.0934 0 0
12:35 pm 12:35 Cloudy 79 26.2 67 19.4 66 66 SSW 7 11 29.92 1013 10 16.0934 0 0
12:55 pm 12:55 Mostly Cloudy 80 26.4 67 19.3 65 65 SSW 8 13 29.91 1013 10 16.0934 0 0
1:15 pm 13:15 Mostly Cloudy 81 27 67 19.6 64 64 SSW 12 19 29.89 1012 10 16.0934 0 0
1:35 pm 13:35 Mostly Cloudy 82 27.6 67 19.5 61 61 SW 7 11 29.89 1012 10 16.0934 0 0
1:55 pm 13:55 Mostly Cloudy 81 27.4 67 19.6 62 62 Calm 29.88 1012 10 16.0934 0 0
2:15 pm 14:15 Partly Cloudy 83 28.1 66 19 58 58 SE 6 9 29.86 1011 10 16.0934 0 0
2:35 pm 14:35 Sunny 84 28.8 66 19.1 56 56 SSE 9 15 29.86 1011 10 16.0934 0 0
2:55 pm 14:55 Partly Cloudy 84 29 67 19.5 57 57 SSE 10 17 29.85 1011 10 16.0934 0 0
3:15 pm 15:15 Sunny 85 29.3 67 19.4 55 55 S 9 15 29.83 1010 10 16.0934 0 0
3:35 pm 15:35 Sunny 84 29.1 66 18.8 54 54 SSE 8 13 29.84 1010 10 16.0934 0 0
3:55 pm 15:55 Sunny 86 29.8 66 19 52 52 SSE 9 15 29.82 1010 7 11.26538 0 0
4:15 pm 16:15 Hazy 85 29.7 66 19 53 53 SSE 12 19 29.82 1010 2.5 4.02335 0 0
4:35 pm 16:35 Hazy 85 29.4 66 19 54 54 SSE 12 19 29.81 1010 2 3.21868 0 0
4:55 pm 16:55 Hazy 85 29.3 67 19.2 55 55 SSE 10 17 29.81 1010 4 6.43736 0 0
5:15 pm 17:15 Hazy 85 29.5 67 19.3 54 54 SSE 12 19 29.8 1009 5 8.0467 0 0
5:35 pm 17:35 Partly Cloudy 85 29.3 67 19.3 55 55 S 10 17 29.8 1009 10 16.0934 0 0
5:55 pm 17:55 Sunny 84 28.7 66 19 56 56 SSE 10 17 29.8 1009 10 16.0934 0 0
6:15 pm 18:15 Sunny 84 29 65 18.5 53 53 SSE 10 17 29.8 1009 10 16.0934 0 0
6:55 pm 18:55 Sunny 83 28.6 65 18.4 54 54 SSE 8 13 29.79 1009 10 16.0934 0 0
7:15 pm 19:15 Sunny 82 27.8 65 18.5 57 57 SSE 8 13 29.8 1009 10 16.0934 0 0
7:35 pm 19:35 Sunny 83 28.1 65 18.3 55 55 SSE 8 13 29.79 1009 10 16.0934 0 0
7:55 pm 19:55 Sunny 82 27.8 65 18.5 57 57 SSE 7 11 29.8 1009 10 16.0934 0 0
8:15 pm 20:15 Sunny 81 27.2 66 18.7 60 60 SSE 6 9 29.8 1009 10 16.0934 0 0
8:35 pm 20:35 Sunny 80 26.5 66 18.7 62 62 SE 6 9 29.81 1009 10 16.0934 0 0
8:55 pm 20:55 Sunny 78 25.7 66 19 67 67 SE 3 6 29.82 1010 10 16.0934 0 0
9:15 pm 21:15 Clear 77 25 67 19.4 71 71 SE 5 7 29.83 1010 10 16.0934 0 0
9:35 pm 21:35 Clear 76 24.7 67 19.5 73 73 SE 5 7 29.84 1011 10 16.0934 0 0
9:55 pm 21:55 Clear 76 24.5 68 19.8 75 75 SE 6 9 29.84 1011 10 16.0934 0 0
10:15 pm 22:15 Clear 76 24.5 68 20 76 76 SE 5 7 29.85 1011 10 16.0934 0 0
10:35 pm 22:35 Clear 76 24.2 68 20.2 78 78 ESE 5 7 29.86 1011 10 16.0934 0 0
10:55 pm 22:55 Clear 75 24 69 20.4 80 80 SE 6 9 29.86 1011 10 16.0934 0 0
11:15 pm 23:15 Clear 75 23.9 69 20.5 81 81 SE 6 9 29.86 1011 10 16.0934 0 0
11:35 pm 23:35 Clear 74 23.6 69 20.5 83 83 SE 5 7 29.86 1011 10 16.0934 0 0
11:55 pm 23:55 Clear 73 23 69 20.5 86 86 SSE 5 7 29.87 1011 10 16.0934 0 0

Powered by AerisWeather